sat.trackr.live / text

‹ back to catalog

O3B FM19

NORAD 44113 · 2019-020B

PAYLOAD ACTIVE UNKNOWN

§ Identity

Operator
Country
O3B
Launch date
2019-04-04
Launch site
FRGUI
Launch vehicle
Mass (kg)
RCS (m²)

Purposes: comms

External: N2YO · Heavens-Above · Gunter

§ Orbital elements

Epoch: 2026-09-01T04:44:11.475456Z

Period
287.93 min
Inclination
0.0747°
Eccentricity
0.0002922
Mean motion
5.00116136 rev/d
Perigee alt
8,061.7 km
Apogee alt
8,070.1 km
Semi-major
14,444.0 km
B*
0.0000e+0
RAAN
330.9469°
Arg perigee
175.9045°
Mean anomaly
213.1690°
Rev number
13,524

§ Raw data

O3B FM191 44113U 19020B   26244.19735504 -.00000014  00000+0  00000+0 0  99912 44113   0.0747 330.9469 0002922 175.9045 213.1690  5.00116136135243

JSON: /api/v1/satellites/44113 · /tle

For live sub-satellite position, see the globe view (requires WebGL).

§ Visibility from observer

Set your observer location to see the next 7 days of passes ≥ 10°. The values pass through the URL so the page stays shareable.

No JS? Fill the form by hand. The geolocation button needs JavaScript.